GW3914 Weather Reports


time (UTC)temp
C
wind
direction
speed
KPH
gust
KPH
rain 1hr
cm
rain 24hr
cm
rain mn
cm
humidity
%
barometer
mb
20260507143313 10 311 0.0 0.0 0.00 0.00 0.00 89 1023.2
20260507142809 10 299 0.0 0.0 0.00 0.00 0.00 89 1023.4
20260507142307 10 308 3.2 3.2 0.00 0.00 0.00 89 1023.4
20260507141802 10 310 0.0 0.0 0.00 0.00 0.00 90 1023.2
20260507141259 9 309 0.0 3.2 0.00 0.00 0.00 91 1023.2
20260507140755 9 314 0.0 0.0 0.00 0.00 0.00 92 1023.1
20260507140253 9 294 0.0 0.0 0.00 0.00 0.00 91 1023.3
20260507135750 9 297 0.0 0.0 0.00 0.00 0.00 92 1023.1
20260507135247 9 296 0.0 0.0 0.00 0.00 0.00 92 1022.8
20260507134743 9 306 0.0 0.0 0.00 0.00 0.00 92 1023.1
20260507134240 9 309 0.0 0.0 0.00 0.00 0.00 93 1022.8
20260507133735 8 309 0.0 0.0 0.00 0.00 0.00 92 1023.0
20260507133232 8 305 0.0 0.0 0.00 0.00 0.00 93 1023.2
20260507132730 8 304 0.0 0.0 0.00 0.00 0.00 93 1023.0
20260507132227 8 299 0.0 0.0 0.00 0.00 0.00 93 1022.7
20260507131723 8 305 0.0 0.0 0.00 0.00 0.00 93 1022.8
20260507131221 8 292 0.0 0.0 0.00 0.00 0.00 93 1023.0
20260507130717 8 294 0.0 0.0 0.00 0.00 0.00 94 1022.6
20260507130215 8 305 0.0 0.0 0.00 0.00 0.00 94 1023.0
20260507125714 8 301 0.0 0.0 0.00 0.00 0.00 93 1023.0
20260507125211 8 289 0.0 0.0 0.00 0.00 0.00 93 1023.2
20260507124707 8 291 0.0 0.0 0.00 0.00 0.00 93 1023.0
20260507124204 8 286 0.0 0.0 0.00 0.00 0.00 93 1023.0
20260507123703 8 287 1.6 3.2 0.00 0.00 0.00 92 1022.8
20260507123200 8 305 0.0 0.0 0.00 0.00 0.00 91 1023.0
20260507122655 8 291 0.0 0.0 0.00 0.00 0.00 91 1023.1
20260507122151 8 299 0.0 0.0 0.00 0.00 0.00 91 1023.2
20260507121647 8 282 1.6 3.2 0.00 0.00 0.00 91 1023.2
20260507121143 8 291 0.0 0.0 0.00 0.00 0.00 91 1023.4
20260507120639 8 291 0.0 0.0 0.00 0.00 0.00 91 1023.5
20260507120136 8 299 0.0 0.0 0.00 0.00 0.00 91 1023.5
20260507115632 8 291 0.0 3.2 0.00 0.00 0.00 91 1023.3
20260507115128 8 291 0.0 3.2 0.00 0.00 0.00 91 1023.4
20260507114624 8 291 0.0 0.0 0.00 0.00 0.00 91 1023.5
20260507114121 8 293 0.0 0.0 0.00 0.00 0.00 91 1023.7
20260507113619 8 292 0.0 0.0 0.00 0.00 0.00 92 1023.6
20260507113116 8 272 0.0 3.2 0.00 0.00 0.00 92 1023.7
20260507112614 9 287 0.0 3.2 0.00 0.00 0.00 91 1023.5
20260507112110 9 287 0.0 3.2 0.00 0.00 0.00 90 1023.5
20260507111607 9 294 0.0 0.0 0.00 0.00 0.00 90 1023.6
20260507111104 9 290 0.0 0.0 0.00 0.00 0.00 89 1023.5
20260507110600 9 287 1.6 3.2 0.00 0.00 0.00 89 1023.7
20260507110057 9 299 0.0 3.2 0.00 0.00 0.00 89 1023.6
20260507105554 9 283 3.2 4.8 0.00 0.00 0.00 89 1023.6
20260507105049 9 296 0.0 3.2 0.00 0.00 0.00 89 1023.6
20260507104547 9 294 1.6 3.2 0.00 0.00 0.00 89 1023.7
20260507104043 9 281 0.0 0.0 0.00 0.00 0.00 88 1023.7
20260507103539 9 302 0.0 0.0 0.00 0.00 0.00 88 1023.6
20260507103037 9 256 0.0 0.0 0.00 0.00 0.00 88 1023.8
20260507102533 9 299 0.0 0.0 0.00 0.00 0.00 88 1023.7
20260507102030 10 319 0.0 0.0 0.00 0.00 0.00 88 1023.8
20260507101525 9 291 0.0 0.0 0.00 0.00 0.00 87 1023.8
20260507101021 10 302 3.2 4.8 0.00 0.00 0.00 87 1023.8
20260507100519 9 313 0.0 0.0 0.00 0.00 0.00 87 1023.8
20260507100017 10 297 0.0 0.0 0.00 0.00 0.00 88 1023.9
20260507095514 10 318 1.6 3.2 0.00 0.00 0.00 88 1023.7
20260507095011 10 307 0.0 0.0 0.00 0.00 0.00 88 1023.7
20260507094507 10 296 0.0 0.0 0.00 0.00 0.00 88 1023.6
20260507094004 10 315 0.0 0.0 0.00 0.00 0.00 89 1023.5
20260507093502 10 305 0.0 0.0 0.00 0.00 0.00 89 1023.7
20260507093000 10 312 0.0 3.2 0.00 0.00 0.00 89 1023.7
20260507092456 10 315 0.0 0.0 0.00 0.00 0.00 89 1023.7
20260507091953 10 312 3.2 3.2 0.00 0.00 0.00 89 1023.6
20260507091449 10 306 0.0 0.0 0.00 0.00 0.00 89 1023.7
20260507090945 10 317 0.0 0.0 0.00 0.00 0.00 90 1023.8
20260507090436 10 312 0.0 3.2 0.00 0.00 0.00 91 1023.8
20260507085933 10 305 0.0 0.0 0.00 0.00 0.00 91 1023.6
20260507085430 10 315 0.0 3.2 0.00 0.00 0.00 91 1023.6
20260507084927 10 316 0.0 0.0 0.00 0.00 0.00 92 1023.7
20260507084424 10 313 0.0 0.0 0.00 0.00 0.00 92 1023.8
20260507083921 10 304 0.0 3.2 0.00 0.00 0.00 92 1023.6
20260507083417 10 311 0.0 0.0 0.00 0.00 0.00 93 1023.7
20260507082913 10 316 0.0 0.0 0.00 0.00 0.00 93 1023.7
20260507082409 10 299 0.0 0.0 0.00 0.00 0.00 93 1023.6
20260507081906 10 300 0.0 0.0 0.00 0.00 0.00 93 1023.7
20260507081402 10 306 4.8 8.0 0.00 0.00 0.00 93 1023.5
20260507080859 10 301 6.4 8.0 0.00 0.00 0.00 93 1023.8
20260507080355 10 296 3.2 3.2 0.00 0.00 0.00 93 1023.7
20260507075851 10 272 1.6 3.2 0.00 0.00 0.00 94 1023.9
20260507075347 10 312 0.0 0.0 0.00 0.00 0.00 94 1023.6
20260507074843 10 305 0.0 0.0 0.00 0.00 0.00 94 1023.6
20260507074341 10 285 0.0 0.0 0.00 0.00 0.00 94 1023.8
20260507073838 10 308 3.2 3.2 0.00 0.00 0.00 94 1023.7
20260507073334 10 316 0.0 3.2 0.00 0.00 0.00 93 1023.6
20260507072832 10 292 3.2 4.8 0.00 0.00 0.00 93 1023.5
20260507072329 10 308 6.4 8.0 0.00 0.00 0.00 92 1023.8
20260507071826 10 311 0.0 0.0 0.00 0.00 0.00 92 1023.6
20260507071323 10 312 0.0 3.2 0.00 0.00 0.00 92 1023.6
20260507070819 10 329 1.6 3.2 0.00 0.00 0.00 91 1023.6
20260507070317 10 309 0.0 3.2 0.00 0.00 0.00 91 1023.6
20260507065814 10 316 1.6 3.2 0.00 0.00 0.00 91 1023.5
20260507065310 10 314 0.0 0.0 0.00 0.00 0.00 91 1023.6
20260507064808 10 317 3.2 3.2 0.00 0.00 0.00 91 1023.5
20260507064306 10 321 1.6 3.2 0.00 0.00 0.00 92 1023.5
20260507063804 10 299 0.0 0.0 0.00 0.00 0.00 92 1023.6
20260507063300 10 277 0.0 0.0 0.00 0.00 0.00 92 1023.6
20260507062757 10 267 1.6 3.2 0.00 0.00 0.00 92 1023.6
20260507062254 10 285 0.0 0.0 0.00 0.00 0.00 92 1023.6
20260507061752 10 297 0.0 3.2 0.00 0.00 0.00 93 1023.5
20260507061250 11 301 0.0 0.0 0.00 0.00 0.00 93 1023.6
20260507060748 11 307 0.0 3.2 0.00 0.00 0.00 93 1023.6
20260507060244 11 312 0.0 0.0 0.00 0.00 0.00 92 1023.5
20260507055741 11 309 0.0 3.2 0.00 0.00 0.00 92 1023.7
20260507055236 11 325 0.0 0.0 0.00 0.00 0.00 91 1023.6
20260507054732 11 315 1.6 3.2 0.00 0.00 0.00 90 1023.5
20260507054229 11 312 1.6 3.2 0.00 0.00 0.00 89 1023.6
20260507053727 11 332 3.2 4.8 0.00 0.00 0.00 88 1023.7
20260507053224 11 358 3.2 8.0 0.00 0.00 0.00 89 1023.6
20260507052723 11 340 6.4 8.0 0.00 0.00 0.00 89 1023.8
20260507052219 11 307 1.6 3.2 0.00 0.00 0.00 89 1023.5
20260507051717 11 345 4.8 4.8 0.00 0.00 0.00 89 1023.6
20260507051214 11 329 0.0 3.2 0.00 0.00 0.00 91 1023.6
20260507050710 11 319 1.6 3.2 0.00 0.00 0.00 91 1023.5
20260507050207 11 345 3.2 8.0 0.00 0.00 0.00 93 1023.3
20260507045704 11 296 0.0 0.0 0.00 0.00 0.00 95 1023.5
20260507045200 11 296 0.0 0.0 0.00 0.00 0.00 95 1023.6
20260507044658 11 295 0.0 0.0 0.00 0.00 0.00 94 1023.5
20260507044154 11 299 0.0 0.0 0.00 0.00 0.00 93 1023.6
20260507043650 11 315 0.0 0.0 0.00 0.00 0.00 93 1023.4
20260507043147 11 329 0.0 0.0 0.00 0.00 0.00 95 1023.5
20260507042644 11 329 0.0 0.0 0.00 0.00 0.00 94 1023.6
20260507042138 11 329 0.0 0.0 0.00 0.00 0.00 94 1023.5
20260507041636 11 329 0.0 0.0 0.00 0.00 0.00 94 1023.5
20260507041127 11 329 0.0 0.0 0.00 0.00 0.00 94 1023.5
20260507040625 11 329 0.0 0.0 0.00 0.00 0.00 94 1023.5
20260507040121 11 329 0.0 0.0 0.00 0.00 0.00 93 1023.2
20260507035617 11 329 0.0 0.0 0.00 0.00 0.00 93 1023.2
20260507035113 11 329 0.0 0.0 0.00 0.00 0.00 93 1023.3
20260507034610 12 329 0.0 0.0 0.00 0.00 0.00 93 1023.3
20260507034107 12 329 0.0 0.0 0.00 0.00 0.00 93 1023.3
20260507033605 12 329 0.0 0.0 0.00 0.00 0.00 93 1023.2
20260507033056 12 335 0.0 0.0 0.00 0.00 0.00 92 1023.3
20260507032554 12 335 0.0 0.0 0.00 0.00 0.00 92 1023.1
20260507032050 12 335 0.0 0.0 0.00 0.00 0.00 91 1023.2
20260507031547 12 335 0.0 0.0 0.00 0.00 0.00 90 1023.2
20260507031044 12 335 0.0 0.0 0.00 0.00 0.00 90 1022.8
20260507030540 12 335 0.0 0.0 0.00 0.00 0.00 91 1023.0
20260507030038 12 335 0.0 0.0 0.00 0.00 0.00 91 1023.1
20260507025535 12 335 0.0 0.0 0.00 0.00 0.00 91 1023.0
20260507025032 12 333 0.0 0.0 0.00 0.00 0.00 90 1023.0
20260507024530 12 331 1.6 3.2 0.00 0.00 0.00 90 1023.1
20260507024027 12 320 0.0 0.0 0.00 0.00 0.00 90 1023.0
20260507023522 12 321 0.0 0.0 0.00 0.00 0.00 91 1022.7
20260507023021 12 321 0.0 0.0 0.00 0.00 0.00 91 1022.8
20260507022517 12 337 4.8 4.8 0.00 0.00 0.00 91 1022.8
20260507022012 12 355 3.2 3.2 0.00 0.00 0.00 91 1022.7
20260507021508 12 333 1.6 3.2 0.00 0.00 0.00 90 1022.7
20260507020959 12 304 3.2 3.2 0.00 0.00 0.00 90 1023.0
20260507020456 12 335 1.6 3.2 0.00 0.00 0.00 90 1022.7
20260507015953 12 306 3.2 3.2 0.00 0.00 0.00 90 1022.8
20260507015452 12 326 3.2 3.2 0.00 0.00 0.00 90 1022.7
20260507014949 12 337 1.6 3.2 0.00 0.00 0.00 89 1022.6
20260507014445 12 330 3.2 4.8 0.00 0.00 0.00 89 1022.6
20260507013941 12 333 4.8 4.8 0.00 0.00 0.00 88 1022.7
20260507013438 12 339 4.8 4.8 0.00 0.00 0.00 88 1022.7
20260507012935 12 314 3.2 3.2 0.00 0.00 0.00 88 1022.7
20260507012432 12 335 3.2 4.8 0.00 0.00 0.00 88 1022.8
20260507011928 12 338 6.4 8.0 0.00 0.00 0.00 89 1022.7
20260507011426 12 307 0.0 0.0 0.00 0.00 0.00 89 1022.7
20260507010925 12 341 3.2 4.8 0.00 0.00 0.00 88 1022.7
20260507010421 12 6 3.2 4.8 0.00 0.00 0.00 88 1023.0
20260507005918 12 316 0.0 0.0 0.00 0.00 0.00 88 1022.8
20260507005415 12 332 3.2 4.8 0.00 0.00 0.00 88 1022.7
20260507004911 12 336 3.2 3.2 0.00 0.00 0.00 88 1022.8
20260507004408 12 304 3.2 4.8 0.00 0.00 0.00 88 1023.0
20260507003906 12 318 3.2 3.2 0.00 0.00 0.00 88 1023.0
20260507003401 12 321 3.2 4.8 0.00 0.00 0.00 88 1023.0
20260507002856 12 317 3.2 3.2 0.00 0.00 0.00 88 1023.1
20260507002352 13 314 1.6 3.2 0.00 0.00 0.00 88 1022.7
20260507001850 12 320 4.8 4.8 0.00 0.00 0.00 88 1023.1
20260507001347 12 93 3.2 4.8 0.00 0.00 0.00 87 1023.0
20260507000844 12 352 3.2 3.2 0.00 0.00 0.00 88 1023.0
20260507000339 12 341 3.2 4.8 0.00 0.00 0.00 88 1023.1
20260506235835 12 303 3.2 3.2 0.00 0.00 0.00 88 1023.1
20260506235332 12 326 4.8 4.8 0.00 0.00 0.00 88 1023.1
20260506234828 12 331 3.2 4.8 0.00 0.00 0.00 88 1023.0
20260506234326 12 26 6.4 8.0 0.00 0.00 0.00 88 1023.1
20260506233823 12 54 9.7 14.5 0.00 0.00 0.00 88 1022.8
20260506233319 13 88 6.4 11.3 0.00 0.00 0.00 87 1023.0
20260506232816 13 101 11.3 16.1 0.00 0.00 0.00 85 1023.0
20260506232311 13 309 0.0 0.0 0.00 0.00 0.00 88 1022.8
20260506231808 13 303 0.0 0.0 0.00 0.00 0.00 88 1023.0
20260506231307 13 295 0.0 0.0 0.00 0.00 0.00 88 1022.8
20260506230803 13 315 0.0 0.0 0.00 0.00 0.00 89 1023.1
20260506230300 13 317 1.6 3.2 0.00 0.00 0.00 87 1022.8
20260506225756 13 311 1.6 3.2 0.00 0.00 0.00 87 1023.0
20260506225254 13 315 0.0 0.0 0.00 0.00 0.00 88 1022.8
20260506224750 13 320 0.0 0.0 0.00 0.00 0.00 89 1023.0
20260506224248 13 327 0.0 3.2 0.00 0.00 0.00 88 1023.1
20260506223744 13 303 0.0 0.0 0.00 0.00 0.00 90 1023.2
20260506223239 12 325 3.2 3.2 0.00 0.00 0.00 89 1023.3
20260506222737 12 330 0.0 3.2 0.00 0.00 0.00 89 1023.4
20260506222232 12 334 3.2 4.8 0.00 0.00 0.00 90 1023.5
20260506221730 12 314 1.6 3.2 0.00 0.00 0.00 90 1023.4
20260506221228 12 314 0.0 0.0 0.00 0.00 0.00 91 1023.4
20260506220720 12 313 0.0 0.0 0.00 0.00 0.00 91 1023.5
20260506220219 12 311 1.6 3.2 0.00 0.00 0.00 92 1023.3
20260506215716 12 310 0.0 0.0 0.00 0.00 0.00 92 1023.3
20260506215212 12 313 1.6 3.2 0.00 0.00 0.00 92 1023.3
20260506214704 12 308 0.0 0.0 0.00 0.00 0.00 93 1023.3
20260506214201 12 315 0.0 0.0 0.00 0.00 0.00 93 1023.5
20260506213700 12 304 0.0 0.0 0.00 0.00 0.00 93 1023.4
20260506213156 12 328 0.0 0.0 0.00 0.00 0.00 93 1023.4
20260506212654 12 335 1.6 3.2 0.00 0.00 0.00 94 1023.3
20260506212154 12 324 0.0 0.0 0.00 0.00 0.00 94 1023.5
20260506211649 12 324 0.0 3.2 0.00 0.00 0.00 94 1023.6
20260506211146 12 335 0.0 0.0 0.00 0.00 0.00 94 1023.4
20260506210643 12 332 4.8 4.8 0.00 0.00 0.00 94 1023.6
20260506210140 12 6 4.8 4.8 0.00 0.00 0.00 94 1023.5
20260506205637 12 340 3.2 4.8 0.00 0.00 0.00 95 1023.5
20260506205132 12 329 0.0 3.2 0.00 0.00 0.00 95 1023.5
20260506204631 12 328 1.6 3.2 0.00 0.00 0.00 95 1023.5
20260506204127 12 310 0.0 0.0 0.00 0.00 0.00 95 1023.3
20260506203625 12 281 1.6 4.8 0.00 0.00 0.00 95 1023.2
20260506203121 12 318 1.6 3.2 0.00 0.00 0.00 95 1023.4
20260506202620 12 30 4.8 4.8 0.00 0.00 0.00 94 1023.3
20260506202116 12 327 1.6 3.2 0.00 0.00 0.00 94 1023.4
20260506201613 12 346 4.8 4.8 0.00 0.00 0.00 94 1023.4
20260506201109 12 314 1.6 3.2 0.00 0.00 0.00 94 1023.2
20260506200606 12 331 1.6 3.2 0.00 0.00 0.00 94 1023.1
20260506195559 12 314 0.0 0.0 0.00 0.00 0.00 95 1023.2
20260506195056 11 328 0.0 0.0 0.00 0.00 0.00 95 1023.1
20260506194554 12 324 1.6 3.2 0.00 0.00 0.00 95 1023.1
20260506194049 12 312 3.2 4.8 0.00 0.00 0.00 96 1023.2
20260506193548 11 340 6.4 8.0 0.00 0.00 0.00 95 1023.0
20260506193044 11 9 8.0 11.3 0.00 0.00 0.00 95 1023.2
20260506192541 11 313 1.6 3.2 0.00 0.00 0.00 96 1023.2
20260506192036 11 331 1.6 3.2 0.00 0.00 0.00 97 1023.2
20260506191534 11 321 3.2 4.8 0.00 0.00 0.00 96 1023.1
20260506191029 11 339 1.6 3.2 0.00 0.00 0.00 97 1023.0
20260506190527 11 329 1.6 3.2 0.00 0.00 0.00 96 1023.2
20260506190024 11 10 6.4 8.0 0.00 0.00 0.00 96 1022.8
20260506185521 11 351 3.2 4.8 0.00 0.00 0.00 96 1023.0
20260506185017 11 335 6.4 8.0 0.00 0.00 0.00 96 1022.8
20260506184515 11 327 3.2 3.2 0.00 0.00 0.00 95 1022.7
20260506184012 11 314 0.0 0.0 0.00 0.00 0.00 96 1022.5
20260506183508 11 332 3.2 4.8 0.00 0.00 0.00 96 1022.7
20260506183006 11 331 6.4 8.0 0.00 0.00 0.00 96 1022.7
20260506182502 11 320 3.2 4.8 0.00 0.00 0.00 96 1022.7
20260506181959 11 306 0.0 0.0 0.00 0.00 0.00 97 1022.8
20260506181457 11 322 0.0 0.0 0.00 0.00 0.00 96 1023.0
20260506180953 11 322 0.0 0.0 0.00 0.00 0.00 97 1022.8
20260506180449 11 353 3.2 3.2 0.00 0.00 0.00 97 1023.0
20260506175941 11 336 4.8 4.8 0.00 0.00 0.00 97 1022.8
20260506175438 11 338 3.2 3.2 0.00 0.00 0.00 97 1023.0
20260506174934 11 338 4.8 8.0 0.00 0.00 0.00 97 1023.0
20260506174432 11 338 8.0 14.5 0.00 0.00 0.00 98 1023.0
20260506173928 11 327 0.0 3.2 0.00 0.00 0.00 97 1022.7
20260506173425 11 319 3.2 3.2 0.00 0.00 0.00 97 1022.7
20260506172922 11 343 4.8 4.8 0.00 0.00 0.00 97 1022.7
20260506172419 11 330 1.6 3.2 0.00 0.00 0.00 97 1022.6
20260506171911 11 331 0.0 3.2 0.00 0.00 0.00 97 1022.6
20260506171408 11 321 1.6 4.8 0.00 0.00 0.00 97 1022.5
20260506170906 11 319 3.2 3.2 0.00 0.00 0.00 97 1022.4
20260506170402 11 341 3.2 4.8 0.00 0.00 0.00 98 1022.4
20260506165900 11 329 3.2 4.8 0.00 0.00 0.00 98 1022.4
20260506165358 11 352 4.8 4.8 0.00 0.00 0.00 98 1022.3
20260506164854 11 337 0.0 3.2 0.00 0.00 0.00 98 1022.4
20260506164351 11 327 3.2 3.2 0.00 0.00 0.00 98 1022.2
20260506163849 11 320 0.0 0.0 0.00 0.00 0.00 98 1022.1
20260506163343 11 319 0.0 0.0 0.00 0.00 0.00 99 1022.3
20260506162838 11 324 0.0 0.0 0.00 0.00 0.00 99 1022.4
20260506162337 11 2 4.8 4.8 0.00 0.00 0.00 99 1022.5
20260506161834 11 344 6.4 8.0 0.00 0.00 0.00 99 1022.4
20260506161331 11 354 4.8 4.8 0.00 0.00 0.00 99 1022.2
20260506160824 11 335 3.2 3.2 0.00 0.00 0.00 99 1022.6
20260506160320 11 340 3.2 3.2 0.00 0.00 0.00 99 1022.1
20260506155819 11 345 3.2 3.2 0.00 0.00 0.00 99 1022.1
20260506155315 11 337 0.0 0.0 0.00 0.00 0.00 99 1022.0
20260506153427 11 31 6.4 8.0 0.00 0.00 0.00 99 1022.4
20260506152925 11 323 0.0 3.2 0.00 0.00 0.00 99 1022.4
20260506152421 11 327 1.6 4.8 0.00 0.00 0.00 99 1022.4
20260506151920 11 2 3.2 4.8 0.00 0.00 0.00 99 1022.1
20260506151416 11 33 4.8 4.8 0.00 0.00 0.00 99 1022.6
20260506150914 11 341 3.2 4.8 0.00 0.00 0.00 99 1022.3
20260506150410 11 334 3.2 4.8 0.00 0.00 0.00 99 1021.9
20260506145907 11 331 0.0 0.0 0.00 0.00 0.00 99 1021.8
20260506145403 11 314 0.0 0.0 0.00 0.00 0.00 99 1021.9
20260506144901 10 302 0.0 0.0 0.00 0.00 0.00 99 1021.5
20260506144357 10 312 0.0 0.0 0.00 0.00 0.00 99 1021.9
20260506143856 10 333 0.0 0.0 0.00 0.00 0.00 99 1022.0